Tue, 11 May 2021 07:52:51 UTC

Information for RPM brotli-1.0.7-11.fc33.ppc64le.rpm

ID21577269
Namebrotli
Version1.0.7
Release11.fc33
Epoch
Archppc64le
SummaryLossless compression algorithm
DescriptionBrotli is a generic-purpose lossless compression algorithm that compresses data using a combination of a modern variant of the LZ77 algorithm, Huffman coding and 2nd order context modeling, with a compression ratio comparable to the best currently available general-purpose compression methods. It is similar in speed with deflate but offers more dense compression.
Build Time2020-05-23 16:39:39 GMT
Size368,261
b74cbcdb2c73ad57425bdcb7bb738953
LicenseMIT
Buildrootf33-python-20856207-1539639
Provides
brotli = 1.0.7-11.fc33
brotli(ppc-64) = 1.0.7-11.fc33
Obsoletes No Obsoletes
Conflicts No Conflicts
Requires
libbrotli(ppc-64) = 1.0.7-11.fc33
libc.so.6()(64bit)
libc.so.6(GLIBC_2.17)(64bit)
libm.so.6()(64bit)
libm.so.6(GLIBC_2.29)(64bit)
rpmlib(CompressedFileNames) <= 3.0.4-1
rpmlib(FileDigests) <= 4.6.0-1
rpmlib(PayloadFilesHavePrefix) <= 4.0-1
rpmlib(PayloadIsZstd) <= 5.4.18-1
rtld(GNU_HASH)
Recommends No Recommends
Suggests No Suggests
Supplements No Supplements
Enhances No Enhances
Files
1 through 4 of 4
Name ascending sort Size
/usr/bin/brotli858,800
/usr/lib/.build-id0
/usr/lib/.build-id/0f0
/usr/lib/.build-id/0f/cb79010f981654345dfc5c5d15f754e2c9821126
Component of
Page:
<<< 51 through 100 of 10510 >>>
Buildroot descending sort Created State
f33-build-22178099-1882497 2020-08-13 07:58:05 expired
f33-build-22178092-1882497 2020-08-13 07:57:57 expired
f33-build-22178086-1882497 2020-08-13 07:57:38 expired
f33-build-22178072-1882497 2020-08-13 07:53:04 expired
f33-build-22178070-1882497 2020-08-13 07:53:03 expired
f33-build-22178069-1882497 2020-08-13 07:53:00 expired
f33-build-22178067-1882497 2020-08-13 07:52:44 expired
f33-build-22178065-1882497 2020-08-13 07:52:44 expired
f33-build-22178064-1882497 2020-08-13 07:52:44 expired
f33-build-22178061-1882497 2020-08-13 07:52:25 expired
f33-build-22178060-1882497 2020-08-13 07:52:25 expired
f33-build-22178059-1882497 2020-08-13 07:52:25 expired
f33-build-22178058-1882497 2020-08-13 07:52:24 expired
f33-build-22178054-1882497 2020-08-13 07:52:09 expired
f33-build-22178053-1882497 2020-08-13 07:52:08 expired
f33-build-22178050-1882497 2020-08-13 07:52:06 expired
f33-build-22178046-1882497 2020-08-13 07:52:05 expired
f33-build-22178024-1882497 2020-08-13 07:46:13 expired
f33-build-22178022-1882497 2020-08-13 07:46:13 expired
f33-build-22178020-1882497 2020-08-13 07:46:12 expired
f33-build-22178018-1882497 2020-08-13 07:45:54 expired
f33-build-22178017-1882497 2020-08-13 07:45:54 expired
f33-build-22178016-1882497 2020-08-13 07:45:54 expired
f33-build-22178015-1882497 2020-08-13 07:45:53 expired
f33-build-22178014-1882497 2020-08-13 07:45:53 expired
f33-build-22178011-1882497 2020-08-13 07:45:34 expired
f33-build-22178010-1882497 2020-08-13 07:45:34 expired
f33-build-22178009-1882497 2020-08-13 07:45:34 expired
f33-build-22178008-1882497 2020-08-13 07:45:33 expired
f33-build-22178004-1882497 2020-08-13 07:45:16 expired
f33-build-22178002-1882497 2020-08-13 07:45:15 expired
f33-build-22178000-1882497 2020-08-13 07:45:15 expired
f33-build-22177997-1882497 2020-08-13 07:45:14 expired
f33-build-22177996-1882497 2020-08-13 07:45:14 expired
f33-build-22177995-1882497 2020-08-13 07:45:14 expired
f33-build-22177985-1882497 2020-08-13 07:44:55 expired
f33-build-22177953-1882497 2020-08-13 07:39:12 expired
f33-build-22177952-1882497 2020-08-13 07:39:02 expired
f33-build-22177951-1882497 2020-08-13 07:39:01 expired
f33-build-22177950-1882497 2020-08-13 07:39:01 expired
f33-build-22177949-1882497 2020-08-13 07:39:00 expired
f33-build-22177947-1882497 2020-08-13 07:38:43 expired
f33-build-22177946-1882497 2020-08-13 07:38:42 expired
f33-build-22177945-1882497 2020-08-13 07:38:42 expired
f33-build-22177944-1882497 2020-08-13 07:38:42 expired
f33-build-22177942-1882497 2020-08-13 07:38:42 expired
f33-build-22177930-1882497 2020-08-13 07:38:23 expired
f33-build-22177876-1882497 2020-08-13 07:34:47 expired
f33-build-22177684-1882497 2020-08-13 07:24:05 expired
f33-build-22177500-1882497 2020-08-13 07:12:58 expired